ELECTRON KICK STAGE R/B

基本信息
目录编号:
44636
目录名称:
ELECTRON KICK STAGE R/B
国际标识:
2019-069C
轨道中心:
EARTH
物体状态:
在轨
发射日期:
2019-10-17 UTC
国别:
美国 (US)
轨道信息
数据来源: 国际轨道数据
星历时间: 2026-09-04T12:19:44+0800
半长轴: 7165.694km
偏心率: 0.0430628
轨道倾角: 87.905°
近地点辐角: 168.547°
升交点赤经: 163.050°
平近点角: 192.592°
近地点: 478.982km
远地点: 1096.132km
周期: 100.611分钟
每日圈数: 14.312497
详细信息
发射场:
RLLC
轨道高度:
LEO
数据来源:
AOE Integration Group
参考系:
TEME
时间系统:
UTC
历元类型:
SGP4
2D轨道图
3D轨道图
轨道高度分析图
轨道倾角分析图
轨道综合分析图
查看轨道综合分析图